Regional Weather Roundup
Issued by NWS

Home | Current Version | Previous Version | Text Only | Print | Product List | Glossary Off
Versions: 1 2 3 4 5 6 7 8 9 10 11 12 13 14 15 16 17 18 19 20 21 22 23 24 25 26 27 28 29 30 31 32 33 34 35 36 37 38 39 40 41 42 43 44 45 46 47 48 49 50

000
ASUS45 KSLC 200710
RWRUT

UTAH REGIONAL WEATHER ROUNDUP
NATIONAL WEATHER SERVICE SALT LAKE CITY UT
100 AM MDT SAT SEP 20 2014

UTZ001>011-023>025-200800-

NORTHERN UTAH

CITY           SKY/WX    TMP DP  RH WIND       PRES   REMARKS
HILL AFB       CLEAR     65  45  48 E14       30.12S
LOGAN          CLEAR     54  51  90 CALM      30.14S
OGDEN          CLEAR     64  45  49 SW3       30.09S
PROVO AIRPORT  CLEAR     63  54  72 S7        30.12R
SALT LAKE CITY CLEAR     63  52  67 S5        30.08S
VERNAL         CLEAR     61  45  55 CALM      30.14R
WENDOVER       CLEAR     64  43  45 CALM      30.10S
HEBER CITY     CLEAR     52  46  82 CALM      30.19R
WEST JORDAN    CLEAR     63  45  51 CALM      30.12S

$$

UTZ012>022-026-027-200800-

SOUTHERN UTAH

CITY           SKY/WX    TMP DP  RH WIND       PRES   REMARKS
BRYCE CANYON   CLEAR     48  43  82 W8        30.28S
CEDAR CITY     CLEAR     64  44  48 SE9       30.13R
MILFORD        PTCLDY    69  44  40 N8        30.08S
MOAB/CYNLANDS  CLEAR     67  40  37 W5        30.01R
PRICE          CLEAR     67  43  41 CALM      30.15R
ST GEORGE      SUNNY     79  45  29 S5        29.95S
KANAB            N/A     63  46  55 NE3       30.12R

$$

REGIONAL REPORTS     COLORADO/ARIZONA

CITY           SKY/WX    TMP DP  RH WIND       PRES   REMARKS
CRAIG, CO      CLEAR     47  41  80 CALM      30.22R
GRAND JUNCTION CLEAR     68  43  40 VRB5      30.05R
RIFLE          CLEAR     57  44  62 E6        30.14R
MONTROSE       CLEAR     60  45  57 MISG      30.15R
CORTEZ         CLEAR     56  47  71 E5        30.12S
PAGE, AZ       CLEAR     77  50  38 SW3       30.01R
GRAND CANYON   CLEAR     52  50  93 CALM      30.21S
KINGMAN        PTCLDY    68  47  46 SE7       29.99S
FLAGSTAFF      CLEAR     51  49  92 CALM      30.23S

$$

REGIONAL REPORTS    NEVADA/IDAHO/WYOMING

CITY           SKY/WX    TMP DP  RH WIND       PRES   REMARKS
LAS VEGAS, NV  PTCLDY    83  33  16 SW8       29.85R
ELY            PTCLDY    51  34  52 S8        30.21R
ELKO           CLEAR     64  41  42 CALM      30.13R
POCATELLO, ID  CLEAR     54  46  74 SE3       30.15R
BURLEY         CLEAR     55  45  68 SW8       30.11S
EVANSTON, WY   CLEAR     55  37  50 E5        30.29S
ROCK SPRINGS   CLEAR     55  34  45 SW6       30.25R

$$



USA.gov is the U.S. government's official web portal to all federal, state and local government web resources and services.